Hannover, Germany

5:18 PM CEST on October 25, 2014 (GMT +0200)
ILOWERSA5 | Change Station
CLOSE
Current Station
Personal Weather Station
Location: Hannover, LOWER SAXONY
Elevation: 194 ft
Nearby Weather Stations

Elev 194 ft 52.40 °N, 9.73 °E | Updated 15 seconds ago

Mostly Cloudy
Mostly Cloudy
55.9 °F
Feels Like 55.9 °F
N
1.0
Wind Variable Wind from SSW
Gusts 4.0 mph

Today
High -- | Low -- °F
--% Chance of Precip.
Yesterday
High -- | Low -- °F
Precip. -- in
8:04 AM 6:05 PM
Waxing Crescent, 3% visible
Pressure 30.09 in
Visibility 6.2 miles
Clouds Scattered Clouds 1200 ft
Mostly Cloudy 1900 ft
Dew Point 53 °F
Humidity 89%
Rainfall 0.02 in
Snow Depth Not available.
UV 0 out of 12
Pollen Not available.
Air Quality Not available.
Flu Activity Not available.
METAR EDDV 251450Z 24005KT 210V270 9999 SCT012 BKN019 13/11 Q1019 NOSIG

More Conditions Fewer Conditions

Pressure 30.09 in
Visibility 6.2 miles
Clouds Scattered Clouds 1200 ft
Mostly Cloudy 1900 ft
Dew Point 53 °F
Humidity 89%
Rainfall 0.02 in
Snow Depth Not available.
UV 0 out of 12
Pollen Not available.
Air Quality Not available.
Flu Activity Not available.
METAR EDDV 251450Z 24005KT 210V270 9999 SCT012 BKN019 13/11 Q1019 NOSIG

More Conditions Fewer Conditions

10-Day Weather Forecast

Almanac

Astronomy

Oct. 25, 2014 Rise Set
Actual Time 8:04 AM CEST 6:05 PM CEST
Civil Twilight 7:28 AM CEST 6:40 PM CEST
Nautical Twilight 6:49 AM CEST 7:20 PM CEST
Astronomical Twilight 6:09 AM CEST 7:59 PM CEST
Moon 9:35 AM CEST 7:05 PM CEST
Length of Visible Light 11h 11m
Length of Day
10h 01m
Tomorrow will be 3m 52s shorter.
Waxing Crescent, 3% of the Moon is Illuminated
Today
Waxing Crescent
Oct 30
First Quarter
Nov 6
Full
Nov 14
Last Quarter
Nov 22
New

Today's Extremes

Country Highs Country Lows

Community

WunderPhotos

Upload Photos

1,764,869 photos uploaded!

Nearby

Snow Depth

Not available.

Earthquake Activity

City Distance Mag. Time & Date
No recent earthquake activity has been reported nearby.
Minimum magnitude displayed is 2.5.

Coastal Water Temperatures

Place Temperature
No Stations Reporting

Nearby Weather Stations